Jeudi 23 mai 2019   -   semaine 21                    on fête: Didier                    soleil  (+2 mn) lever du soleil 06:06:00 coucher du soleil 21:21:00                    lune Lune gibbeuse décroissante
Sélection

Sélection d'un SYNOP

   Synop:       

  Période à consulter:

Actuelle
Archive     

Relevé

Dernier relevé du SYNOP pour la période choisie

Conditions météo à la station de Vichy/Charmeil (4610N 00324E)    altitude 251m

Date du relevé23/05/2019 à 06:00
Visibilité10km
Vent0 km/h N
Température3.9 C
Température mini / 12h0.0 C
Humidité97.9 %
Point de rosée3.6 C
Pression absolue989.2 hPa
Pression relative1020.1 hPa
Variation pression-0.3 hPa en baisse régulière ou irrégulière

24h

Historique de la période choisie

Certaines stations ne diffusent pas en continu, d'où l'absence possible de données à certaines heures. Le tableau ci-dessous récapitule l'historique des relevés de la station de Vichy/Charmeil.

Date - Heure Base des nuages Visibilité Nébulosité Vent - Secteur Température Humidité Point rosée Pression / Géopotentiel Précipitations Temps
23/05 06:00 10km 0 km/h N 3.9 C 97.9 % 3.6 C 1020.1 hPa
23/05 05:00 8km 0 km/h N 4.4 C 97.2 % 4.0 C 1020.1 hPa
23/05 04:00 13km 0 km/h N 5.0 C 97.2 % 4.6 C 1020.2 hPa
23/05 03:00 20km 0 km/h N 6.0 C 95.9 % 5.4 C 1020.1 hPa
23/05 02:00 19km 0 km/h N 6.8 C 95.3 % 6.1 C 1020.3 hPa 0 mm/6h
23/05 01:00 20km 0 km/h N 8.0 C 94.7 % 7.2 C 1020.1 hPa
23/05 00:00 20km 0 km/h N 8.6 C 92.2 % 7.4 C 1020.2 hPa
22/05 23:00 20km 0 km/h N 9.8 C 89.8 % 8.2 C 1020.2 hPa
22/05 22:00 20km 0 km/h N 12.0 C 81.9 % 9.0 C 1019.7 hPa
22/05 21:00 20km 2 km/h NO 16.6 C 62.9 % 9.5 C 1018.9 hPa
22/05 20:00 20km 6 km/h NNE 19.9 C 45.9 % 7.9 C 1018.3 hPa 0 mm/12h
22/05 19:00 19km 7 km/h NNE 21.5 C 41.0 % 7.7 C 1018.0 hPa
22/05 18:00 20km 6 km/h NNE 20.0 C 47.8 % 8.6 C 1018.3 hPa
22/05 17:00 20km 7 km/h N 21.3 C 39.9 % 7.1 C 1018.4 hPa
22/05 16:00 19km 6 km/h N 21.3 C 39.1 % 6.8 C 1018.7 hPa
22/05 15:00 20km 7 km/h N 21.1 C 45.0 % 8.7 C 1018.8 hPa
22/05 14:00 20km 7 km/h NNE 20.8 C 44.9 % 8.4 C 1019.1 hPa 0 mm/6h
22/05 13:00 19km 6 km/h NNE 20.2 C 49.9 % 9.4 C 1019.4 hPa
22/05 12:00 18km 2 km/h NNE 19.0 C 53.0 % 9.2 C 1019.9 hPa
22/05 11:00 20km 2 km/h NNE 18.3 C 60.8 % 10.6 C 1019.9 hPa
22/05 10:00 18km 2 km/h ENE 15.7 C 69.8 % 10.2 C 1020.1 hPa
22/05 09:00 18km 2 km/h SE 13.6 C 78.9 % 10.0 C 1020.5 hPa
22/05 08:00 16km 2 km/h S 9.2 C 96.7 % 8.7 C 1021.0 hPa 0 mm/12h
22/05 07:00 8km 2 km/h SSO 7.6 C 99.3 % 7.5 C 1020.7 hPa

Source: ogimet